Location: Bratsk-Energetik
(56.3300°N, 101.7600°E)
Time: 19:58:39
(UTC+08:00)

ISS - Pass Details

Date: 22 July 2018
Orbit: 402 x 408 km, 51.6° (Epoch: 21 July)

Event Time Altitude Azimuth Distance (km) Brightness Sun altitude
Rises 01:54:48 0° 266° (W) 2,328 -0.1 -12.9°
Reaches altitude 10° 01:57:00 10° 256° (WSW) 1,468 -1.2 -12.9°
Maximum altitude 01:59:58 31° 192° (SSW) 741 -3.1 -12.8°
Drops below altitude 10° 02:02:55 10° 128° (SE) 1,468 -1.3 -12.7°
Sets 02:05:08 0° 118° (ESE) 2,328 -0.1 -12.7°
